Track APRIZESAT 4 now! 10-day predictions APRIZESAT 4 is classified as:
1 35684U 09041D 25021.58330480 .00002322 00000-0 29128-3 0 9995 2 35684 98.2070 80.3059 0044468 176.7729 183.3779 14.82527132835520